Weather History for KVOK - January, 2013

Change the Weather History Date:

Saturday, January 19, 2013

  Actual Average Record
Temperature  
Mean Temperature 28 °F -  
Max Temperature 48 °F 21 °F 32 °F (2015)
Min Temperature 7 °F 9 °F 18 °F (2015)
Degree Days  
Heating Degree Days 36    
Moisture  
Dew Point 21 °F    
Average Humidity 66    
Maximum Humidity 92    
Minimum Humidity 46    
Precipitation  
Precipitation 0.03 in - - ()
Sea Level Pressure  
Sea Level Pressure 29.78 in    
Wind  
Wind Speed 13 mph (West)    
Max Wind Speed 37 mph    
Max Gust Speed 48 mph    
Visibility 10 miles    
Events Snow    
Averages and records for this station are not official NWS values.
T = Trace of Precipitation, MM = Missing Value Source: NWS Daily Summary

Daily Weather History Graph

Daily Weather History Graph

Search for Another Location

Airport or City:

Trip Planner

Search our weather history database for the weather conditions in past years. The results will help you decide how hot, cold, wet, or windy it might be!

Date:

Astronomy

Jan. 19, 2013 Rise Set
Actual Time 7:29 AM CST 4:54 PM CST
Civil Twilight 6:58 AM CST 5:26 PM CST
Nautical Twilight 6:22 AM CST 6:01 PM CST
Astronomical Twilight 5:48 AM CST 6:35 PM CST
Moon 11:22 AM CST (1/19) 1:01 AM CST (1/19)
Length of Visible Light 10h 28m
Length of Day
9h 24m
First Quarter, 57% of the Moon is Illuminated
Jan 19
First Quarter
Jan 26
Full
Feb 3
Last Quarter
Feb 10
New
Feb 17
First Quarter

Hourly Weather History & Observations

Time (CST) Temp. Windchill Dew Point Humidity Pressure Visibility Wind Dir Wind Speed Gust Speed Precip Events Conditions
12:55 AM 30.9 °F 27.5 °F 27.3 °F 86% 29.80 in 10.0 mi West 3.5 mph - N/A   Clear
1:55 AM 32.0 °F 27.5 °F 28.2 °F 86% 29.82 in 10.0 mi SSW 4.6 mph - N/A   Clear
2:55 AM 34.7 °F 30.6 °F 30.4 °F 84% 29.82 in 10.0 mi WSW 4.6 mph - N/A   Clear
3:55 AM 33.3 °F - 29.7 °F 87% 29.81 in 10.0 mi Calm Calm - N/A   Scattered Clouds
4:55 AM 31.6 °F 28.3 °F 29.5 °F 92% 29.79 in 10.0 mi South 3.5 mph - N/A   Overcast
5:55 AM 34.7 °F 30.6 °F 30.2 °F 84% 29.78 in 10.0 mi South 4.6 mph - N/A   Scattered Clouds
6:55 AM 34.3 °F 31.4 °F 30.4 °F 85% 29.76 in 10.0 mi SE 3.5 mph - N/A   Clear
7:55 AM 33.8 °F 29.6 °F 30.2 °F 87% 29.75 in 10.0 mi SE 4.6 mph - N/A   Mostly Cloudy
8:55 AM 35.6 °F 32.8 °F 30.2 °F 81% 29.74 in 10.0 mi South 3.5 mph - N/A   Mostly Cloudy
9:55 AM 37.4 °F 30.8 °F 32.0 °F 81% 29.72 in 10.0 mi SSW 9.2 mph - N/A   Mostly Cloudy
10:55 AM 41.0 °F 34.7 °F 32.0 °F 70% 29.71 in 10.0 mi West 10.4 mph - N/A   Mostly Cloudy
11:55 AM 46.4 °F 40.4 °F 32.0 °F 57% 29.67 in 10.0 mi West 13.8 mph - N/A   Mostly Cloudy
12:55 PM 46.4 °F 40.7 °F 30.2 °F 53% 29.65 in 10.0 mi West 12.7 mph 19.6 mph N/A   Mostly Cloudy
1:55 PM 48.2 °F - 30.2 °F 50% 29.65 in 10.0 mi West 18.4 mph 21.9 mph N/A   Mostly Cloudy
2:55 PM 46.4 °F 39.2 °F 32.0 °F 57% 29.65 in 10.0 mi West 18.4 mph 23.0 mph N/A   Mostly Cloudy
3:55 PM 42.8 °F 35.1 °F 30.2 °F 61% 29.67 in 10.0 mi West 16.1 mph - N/A   Mostly Cloudy
4:55 PM 40.1 °F 29.2 °F 28.2 °F 63% 29.68 in 10.0 mi West 26.5 mph 29.9 mph N/A   Overcast
5:10 PM 39.2 °F 29.6 °F 28.4 °F 65% 29.68 in 10.0 mi West 19.6 mph 33.4 mph N/A   Overcast
5:19 PM 39.2 °F 28.5 °F 28.4 °F 65% 29.68 in 10.0 mi West 24.2 mph 34.5 mph N/A   Overcast
5:55 PM 38.1 °F 26.8 °F 23.2 °F 55% 29.68 in 10.0 mi West 25.3 mph 35.7 mph 0.00 in   Scattered Clouds
6:55 PM 30.4 °F 14.1 °F 11.8 °F 46% 29.75 in 10.0 mi West 36.8 mph 48.3 mph 0.02 in   Partly Cloudy
7:14 PM 26.6 °F 9.3 °F 12.2 °F 55% 29.78 in 10.0 mi West 34.5 mph 48.3 mph N/A   Scattered Clouds
7:24 PM 24.8 °F 6.6 °F 12.2 °F 59% 29.78 in 10.0 mi West 35.7 mph 46.0 mph N/A   Scattered Clouds
7:27 PM 24.8 °F 7.6 °F 12.2 °F 59% 29.79 in 10.0 mi WNW 31.1 mph 46.0 mph N/A   Mostly Cloudy
7:55 PM 22.5 °F 3.6 °F 11.1 °F 62% 29.83 in 9.0 mi West 34.5 mph 44.9 mph 0.00 in   Scattered Clouds
7:59 PM 23.0 °F 4.4 °F 10.4 °F 59% 29.83 in 9.0 mi West 34.5 mph 44.9 mph N/A Snow Light Snow
8:15 PM 21.2 °F 3.3 °F 8.6 °F 58% 29.85 in 10.0 mi WNW 28.8 mph 44.9 mph N/A   Mostly Cloudy
8:21 PM 19.4 °F 0.5 °F 6.8 °F 58% 29.86 in 10.0 mi WNW 29.9 mph 43.7 mph N/A Snow Light Snow
8:36 PM 17.6 °F -0.6 °F 3.2 °F 53% 29.88 in 10.0 mi WNW 25.3 mph 44.9 mph N/A   Scattered Clouds
8:55 PM 16.7 °F -2.2 °F 2.8 °F 55% 29.90 in 10.0 mi WNW 26.5 mph 41.4 mph 0.01 in   Clear
9:55 PM 12.2 °F -8.2 °F 0.1 °F 59% 29.97 in 10.0 mi NW 26.5 mph 38.0 mph N/A   Partly Cloudy
10:55 PM 9.7 °F -12.0 °F -2.0 °F 59% 30.02 in 10.0 mi WNW 27.6 mph 38.0 mph N/A   Scattered Clouds
11:55 PM 7.5 °F -14.5 °F -4.4 °F 58% 30.07 in 10.0 mi NW 26.5 mph 36.8 mph N/A   Partly Cloudy